Location: Bergl
(46.9833°N, 15.9167°E)
Time: 02:20:39
(UTC+00:00)

Daily predictions for brighter satellites

Satellite Brightness Start Highest point End
(mag) Time Altitude Azimuth Time Altitude Azimuth Time Altitude Azimuth
ADEOS II 4.0 00:00:23 10° NE 00:04:22 21° E 00:07:44 12° SE
NOSS 2-2 (D) 4.4 00:02:28 10° NW 00:07:35 60° SW 00:11:38 25° SSE
Cosmos 1674 Rocket 4.5 00:06:55 31° WSW 00:07:56 35° WNW 00:11:55 10° N
Cosmos 1867 4.3 00:05:01 23° WSW 00:08:14 47° NW 00:13:32 10° NNE
Cosmos 2298 Rocket 4.2 00:07:41 36° SW 00:09:45 63° WNW 00:15:03 10° NNE
USA 306 2.7 00:11:52 52° SW 00:12:51 83° SSE 00:17:02 10° ENE
Cosmos 2084 Rocket 3.9 00:12:47 37° SE 00:13:05 37° ESE 00:16:37 10° NE
Thor Agena Rocket 3.6 00:08:04 10° NNE 00:13:23 83° ESE 00:15:34 37° S
Cosmos 2369 Rocket 4.4 00:10:32 10° N 00:15:07 25° NE 00:19:40 10° ESE
USA 307 2.7 00:15:20 51° SW 00:16:18 78° SE 00:20:29 10° ENE
SL-16 R/B 3.1 00:16:08 24° SSE 00:18:47 38° ESE 00:23:59 10° NE
ERBS 2.0 00:22:52 77° E 00:22:52 77° E 00:25:47 10° NE
Cosmos 1980 3.8 00:20:38 33° SW 00:23:14 70° WNW 00:28:54 10° NNE
CZ-4 R/B 4.3 00:18:55 10° NNE 00:23:29 52° E 00:25:30 30° SSE
ATLAS 5 CENTAUR R/B 3.2 00:14:26 10° NW 00:23:39 36° WSW 00:24:39 33° SW
Cosmos 1455 Rocket 3.0 00:19:57 10° N 00:24:27 88° W 00:26:10 38° S
Cosmos 2333 Rocket 4.2 00:20:28 10° W 00:24:39 21° NW 00:28:52 10° N
CZ-4C R/B 3.7 00:18:05 10° NW 00:24:45 36° WSW 00:27:53 27° SSW
USA 215 4.4 00:18:45 10° NE 00:24:49 43° NNW 00:30:55 10° W
COSMOS 2455 4.3 00:21:40 16° SSE 00:24:57 26° ESE 00:29:49 10° NE
Cosmos 332 Rocket 3.7 00:28:23 38° SSW 00:30:12 81° WNW 00:35:01 10° NNE
NOSS 0 Rocket 4.4 00:29:22 24° WSW 00:33:00 53° NW 00:39:09 10° NNE
Meteor 1-24 Rocket 3.8 00:34:52 28° S 00:37:57 74° E 00:43:25 10° NNE
Meteor 2-10 Rocket 3.9 00:33:21 10° NNW 00:38:51 53° W 00:41:16 31° SSW
Cosmos 1975 Rocket 3.1 00:39:39 37° SSW 00:41:16 66° W 00:45:43 10° N
UNK 4.0 00:40:50 18° SSE 00:44:11 69° ENE 00:48:47 10° N
USA 308 3.0 00:44:46 27° WSW 00:46:56 70° NNW 00:51:07 10° ENE
MOS 1 Rocket 3.4 00:44:06 17° SSE 00:47:17 62° ENE 00:51:33 10° N
Cosmos 2219 Rocket 4.3 00:44:14 10° W 00:48:01 18° NW 00:51:50 10° N
Cosmos 1025 Rocket 3.0 00:47:03 35° SSW 00:48:44 68° W 00:53:02 10° N
YAOGAN 11 4.3 00:46:10 18° SSE 00:49:26 72° ENE 00:53:56 10° N
Cosmos 1455 2.3 00:46:53 10° N 00:50:35 67° E 00:52:38 25° SSE
Cosmos 1269 Rocket 4.0 00:46:20 10° NNW 00:51:36 68° WSW 00:55:07 21° S
Cosmos 1271 Rocket 3.9 00:50:23 10° N 00:54:00 40° ENE 00:57:39 10° SE
GP-B 4.2 00:52:40 10° NNW 00:56:34 30° W 00:58:07 24° WSW
Meteor 2-5 Rocket 3.8 00:55:38 26° SSW 00:58:54 67° WNW 01:04:35 10° N
CZ-2D R/B 2.1 00:53:55 10° NNE 00:59:19 78° WNW 01:02:28 25° SSW
Cosmos 1300 4.4 00:58:32 10° NW 01:01:07 18° W 01:01:27 17° W
Lacrosse 5 1.9 00:58:31 28° SW 01:01:12 71° SE 01:06:18 10° NE
Cosmos 2154 Rocket 4.2 00:58:21 10° N 01:04:44 78° E 01:11:03 10° SSE
USA 305 3.6 01:07:08 14° W 01:10:30 48° NNW 01:14:35 10° NE
Cosmos 1544 Rocket 3.7 01:06:26 10° NNW 01:10:46 55° W 01:13:10 25° SSW
BREEZE-M DEB (TANK) 4.2 01:00:42 10° W 01:13:47 76° NNW 01:17:32 10° ENE
Cosmos 2237 Rocket 3.4 01:11:28 15° WSW 01:15:30 33° NW 01:20:40 10° NNE
AQUA 3.8 01:13:54 10° N 01:18:40 76° WNW 01:21:49 21° SSW
SL-16 R/B 2.7 01:14:42 16° S 01:19:32 55° W 01:25:40 10° NNW
Helios 1A 2.9 01:16:52 13° SSE 01:20:36 87° WSW 01:24:52 10° NNW
SAR-Lupe-2 3.6 01:18:43 10° N 01:22:17 63° WNW 01:24:09 26° SSW
Lacrosse 5 rocket 1.3 01:21:54 26° SW 01:23:59 69° SE 01:28:03 10° NE
Resurs 1-4 Rocket 2.7 01:23:25 10° N 01:28:23 43° WNW 01:31:56 18° SW
Cosmos 2074 Rocket 4.3 01:22:53 10° NNW 01:28:57 52° W 01:33:59 15° SSW
Cosmos 1943 Rocket 2.6 01:28:54 10° NW 01:34:13 42° WSW 01:39:28 10° S
Cosmos 2297 3.9 01:28:41 10° NW 01:34:16 54° WSW 01:39:49 10° S
Cosmos 1703 3.2 01:35:52 17° S 01:38:52 87° W 01:42:50 10° N
ADEOS II 2.3 01:39:15 10° N 01:44:24 57° WNW 01:48:40 15° SW
IDEFIX/ARIANE 42P 2.7 01:40:06 10° N 01:45:21 67° WNW 01:49:52 14° SSW
MOS 1-B Rocket 4.3 01:42:28 10° SSE 01:48:00 65° ENE 01:53:45 10° N
Cosmos 292 Rocket 3.9 01:48:10 15° SSW 01:52:04 68° WNW 01:56:52 10° NNE
USA 306 4.2 01:48:52 10° W 01:52:45 36° NNW 01:56:38 10° NE
USA 307 4.2 01:52:17 10° W 01:56:12 37° NNW 02:00:07 10° NE
Meteor 1-21 Rocket 4.2 01:51:47 10° S 01:57:26 89° WNW 02:03:02 10° N
ERBS 4.3 01:56:02 10° WNW 01:58:24 20° NNW 02:00:47 10° NNE
Cosmos 2369 Rocket 2.2 01:54:04 10° NNW 01:59:38 66° WSW 02:05:09 10° SSE
IRS-1D 3.6 01:57:00 10° NNE 02:02:23 78° WNW 02:07:39 10° SSW
EO 1 Del DPAF 4.0 01:59:25 10° N 02:02:36 33° WNW 02:05:16 13° SW
Cosmos 962 Rocket 4.5 01:56:34 10° NNW 02:02:41 72° W 02:08:44 10° S
Cosmos 2228 3.3 01:58:31 10° NNW 02:02:44 49° W 02:06:54 10° SSW
SL-16 R/B 3.0 01:58:00 12° WSW 02:02:52 39° NW 02:08:13 10° NNE
Cosmos 2251 Rocket 3.6 01:59:57 10° NNW 02:05:06 57° WSW 02:10:16 10° S
Meteor 1-28 Rocket 4.5 02:03:37 13° SW 02:05:59 23° W 02:09:01 10° NW
Cosmos 2181 Rocket 4.3 02:00:08 10° S 02:06:19 71° E 02:12:28 10° NNE
Cosmos 1892 4.4 02:03:08 10° SSE 02:06:31 32° E 02:09:54 10° NNE
Cosmos 1656 Rocket 3.6 02:03:38 10° NNW 02:09:01 69° WSW 02:14:24 10° SSE
COSMOS 2455 3.1 02:04:48 12° SW 02:10:26 63° NW 02:16:27 10° NNE
Cosmos 2058 Rocket 3.6 02:06:17 10° N 02:10:39 61° ENE 02:14:58 10° SSE
Cosmos 1190 Rocket 4.5 02:07:23 10° NNW 02:12:40 68° ENE 02:17:57 10° SSE
Cosmos 1408 3.3 02:16:48 10° S 02:20:21 53° E 02:23:54 10° NNE
MSX 4.3 02:16:47 10° N 02:22:17 47° WNW 02:27:47 10° SW
Cosmos 1603 3.8 02:20:31 10° SSW 02:26:09 89° SE 02:31:52 10° NNE
USA 308 4.5 02:23:14 10° WNW 02:27:02 32° N 02:30:51 10° ENE
PAYLOAD A 4.3 02:22:58 10° NNE 02:27:40 62° ESE 02:32:26 10° S
Cosmos 1271 Rocket 4.5 02:27:10 10° NW 02:29:35 16° W 02:32:00 10° SW
Cosmos 1606 Rocket 4.3 02:29:49 10° NNW 02:33:51 35° W 02:37:49 10° SSW
ALOS 2.4 02:32:09 10° NNE 02:36:51 79° ESE 02:41:30 10° S
